www.pogodaiklimat.ru

Погода и климат >> Архив погоды >> Россия >> Ханты-Мансийский АО >> Нижневартовск


АРХИВ ПОГОДЫ в Нижневартовске

Время (UTC), дата Ветер
(напр.,м/с)
 
Видим.   Явления Облачность Т
(С)
Тd
(С)
f
(%)
Тe
(С)
Тes
(С)
Комфортность P
(гПа)
Po
(гПа)
Тmin
(С)
Tmax
(С)
R
(мм)
R24
(мм)
S
(см)
15 9.10 ЮЗ 5-10
{11}
9000 м слабый дождь 10/8 210 м
[Frnb As op]
+7.2 +6.4 95 +3 +3 по сезону 1000.7 994.2 +9.0 8
18 9.10 З 3
{10}
2700 м слабая морось {дождь} 10/10 120 м
[St]
+5.3 +4.6 95 +2 +2 по сезону 1002.0 995.3
21 9.10 СЗ 2 4300 м слабый дождь {морось} 10/10 210 м
[Frnb Ns]
+2.4 +2.2 99 -1 -1 по сезону 1005.4 998.7
00 10.10 СЗ 4
{11}
20 км {дождь, морось} 10/10 210 м
[St]
+2.4 +1.9 96 -3 -3 по сезону 1008.7 1002.0
03 10.10 СЗ 4 50 км 10/10 500 м
[Sc]
+2.0 -0.2 85 -3 -3 по сезону 1011.8 1005.0 +1.8 1
06 10.10 СЗ 3
{11}
50 км 9/9 900 м
[Cb calv]
+3.3 -3.4 61 -0 0 по сезону 1014.1 1007.3
09 10.10 СЗ 6
{11}
50 км 10/8 930 м
[Cb calv As op]
+3.5 -1.5 70 -2 -2 по сезону 1015.4 1008.6
12 10.10 З 2 50 км {ливн. осадки} 10/8 1020 м
[Cb calv Ac trans]
+3.3 -2.4 66 +1 +1 по сезону 1015.9 1009.1
15 10.10 ЮЗ 4 20 км 3/0
[Ac trans]
+1.9 -2.5 73 -3 -3 по сезону 1015.8 1008.9 +3.9 0.0
18 10.10 Ю 3 20 км ясно -0.2 -1.7 90 -5 -5 прохладно 1013.7 1006.8
21 10.10 Ю 5 20 км 3/0
[Ac trans]
+0.3 -1.1 90 -6 -6 прохладно 1011.6 1004.8
00 11.10 Ю 5 20 км 10/0
[Ac trans Ci sp]
0.0 -1.5 90 -6 -6 по сезону 1008.9 1002.1
03 11.10 Ю 6
{10}
50 км 9/0
[Ac trans]
+0.2 -0.9 92 -7 -6 прохладно 1006.1 999.3 -0.3
06 11.10 Ю 8-12
{12}
50 км 10/0
[As op]
+3.0 -0.8 76 -3 -3 по сезону 1002.5 995.8
09 11.10 Ю 7-12
{12}
8000 м слабый дождь 10/8 330 м
[Frnb As op]
+3.5 +2.5 93 -3 -3 по сезону 999.5 992.8
12 11.10 Ю 6
{12}
9000 м слабый дождь 10/8 240 м
[Frnb As op]
+3.6 +2.6 93 -2 -2 по сезону 997.1 990.4
15 11.10 Ю 6-10
{11}
8000 м слабый дождь 10/8 300 м
[Frnb As op]
+5.1 +4.4 95 -0 -0 по сезону 995.2 988.5 +5.1 4
18 11.10 Ю 5 8000 м слабый дождь 10/8 300 м
[Frnb As op]
+5.9 +5.2 95 +1 +1 по сезону 993.6 986.9
21 11.10 Ю 6 9000 м слабый ливневой дождь 10/8 240 м
[Cb calv As op]
+6.2 +5.5 95 +1 +1 по сезону 992.1 985.4
00 12.10 Ю 5 9000 м слабый ливневой дождь 10/8 270 м
[Cb calv As op]
+6.1 +5.6 97 +2 +2 тепло 991.5 984.9
03 12.10 ЮЗ 5 50 км {ливн. осадки} 9/6 1080 м
[Cb calv Ac trans]
+5.5 +4.8 95 +1 +1 по сезону 991.8 985.1 +5.1 3
06 12.10 Ю 5 50 км в посл. час ливневой дождь 10/8 400 м
[Cb calv Ac trans]
+6.5 +5.1 91 +2 +2 по сезону 991.9 985.2
09 12.10 З 3
{11}
9000 м слабый ливневой дождь 10/8 210 м
[Cb calv Ac trans]
+3.9 +3.2 95 -0 0 по сезону 992.7 986.0
12 12.10 СЗ 3 8000 м слабый ливневой дождь 10/8 180 м
[Cb calv As op]
+2.2 +1.7 96 -2 -2 по сезону 994.9 988.2
15 12.10 З 2 20 км {ливн. осадки} 10/5 270 м
[Frnb As op]
+1.3 +0.8 96 -2 -2 по сезону 997.4 990.6 +7.1 7
18 12.10 З 2 20 км {ливн. осадки} 10/4 300 м
[Frnb As op]
+0.1 -0.8 94 -4 -4 по сезону 998.6 991.8
21 12.10 З 1 20 км 9/0
[Ac trans]
-0.3 -1.2 94 -2 -2 по сезону 999.3 992.5
00 13.10 СЗ 1 20 км 10/10 720 м
[Sc]
-0.4 -1.6 92 -3 -3 по сезону 999.8 993.0
03 13.10 З 2 50 км в посл. час ливневой снег 10/10 930 м
[Sc]
-1.0 -3.6 82 -5 -5 по сезону 1000.4 993.6 -1.0 0.2
06 13.10 З 2 50 км {ливн. осадки, снег} 10/10 540 м
[Sc]
-0.7 -4.5 75 -4 -4 по сезону 1000.6 993.8
09 13.10 С 2 50 км 6/6 800 м
[Sc]
+1.2 -5.1 63 -2 -1 по сезону 1000.6 993.8
12 13.10 ЮЗ 1 50 км 3/0
[Ac trans]
-0.2 -6.0 65 -2 -2 по сезону 1001.5 994.7
15 13.10 Ю 1 20 км ясно -2.4 -4.6 85 -5 -5 по сезону 1001.1 994.3 +2.2
18 13.10 ЮЗ 1 20 км 4/0
[Ac trans]
-3.0 -3.7 95 -5 -5 по сезону 1000.8 993.9
21 13.10 Ю 2 20 км 10/0
[Ac As]
-1.9 -3.0 92 -6 -6 по сезону 1001.5 994.7
00 14.10 Ю 2 20 км в посл. час снег 10/0
[Ac As]
-1.3 -2.3 93 -5 -5 по сезону 1002.9 996.1
03 14.10 Ю 3 50 км 10/3 300 м
[St Ac und]
-1.2 -2.2 93 -6 -6 по сезону 1005.3 998.5 -3.4 0.0
06 14.10 Ю 3 9000 м слабый снег 10/8 300 м
[Frnb As op]
+0.7 -0.4 92 -4 -4 по сезону 1006.9 1000.1
09 14.10 Ю 5 50 км в посл. час ливневой снег 10/8 400 м
[Cb calv As op]
+1.6 -0.9 83 -4 -4 по сезону 1010.6 1003.8
12 14.10 Ю 4 50 км {ливн. осадки, снег} 8/8 570 м
[Cb calv]
+1.5 -1.3 82 -4 -4 по сезону 1013.3 1006.4
15 14.10 Ю 4 20 км ясно +0.4 -0.7 92 -5 -5 по сезону 1015.2 1008.3 +1.6 0.0
18 14.10 Ю 3 20 км 8/8 1140 м
[Sc]
+0.4 -1.0 90 -4 -4 по сезону 1016.9 1010.0
21 14.10 Ю 1 20 км 6/6 1170 м
[Sc]
+0.2 -1.2 90 -2 -2 по сезону 1017.9 1011.0
00 15.10 ЮВ 2 20 км 6/6 1140 м
[Sc]
-1.8 -2.3 96 -6 -6 по сезону 1019.1 1012.2
03 15.10 Ю 2 50 км 10/0
[Ac trans Ci fib]
-0.8 -1.2 97 -5 -5 по сезону 1020.3 1013.4 -1.9
06 15.10 Ю 1 50 км 8/0
[Ac trans Ci fib]
+2.2 -0.6 82 +1 +2 по сезону 1020.8 1014.0
09 15.10 ЮЗ 2 50 км 8/3 1000 м
[Sc Ac trans]
+3.6 -3.4 60 +1 +2 по сезону 1020.9 1014.1
12 15.10 штиль 0 50 км 9/0
[Ac trans]
+1.5 -3.3 70 +1 +1 по сезону 1022.3 1015.3
15 15.10 ЮЗ 1 20 км 9/0
[Ac trans]
-0.2 -2.3 86 -2 -2 по сезону 1023.1 1016.1 +4.4
18 15.10 З 1 20 км 8/0
[Ac trans]
-0.2 -1.4 92 -2 -2 по сезону 1023.5 1016.5
21 15.10 ЮЗ 1 20 км ясно -2.0 -2.3 98 -4 -4 по сезону 1023.5 1016.5
00 16.10 ЮЗ 1 3400 м дымка {туман} ясно -3.4 -3.4 100 -6 -6 по сезону 1023.5 1016.4
03 16.10 Ю 1 50 км в посл. час туман ясно -3.0 -3.0 100 -6 -5 по сезону 1023.7 1016.6 -3.6
06 16.10 Ю 3 50 км {туман} 3/0
[Ci fib]
+2.3 -2.3 72 -2 -0 по сезону 1022.2 1015.3
09 16.10 ЮЗ 6 50 км 5/5 960 м
[Cu hum]
+3.9 -5.7 50 -1 -1 по сезону 1020.3 1013.5

 

Местоположение метеостанции Нижневартовск (Ханты-Мансийский АО, Россия): широта 60.92 долгота 76.60 высота над уровнем моря 55 м.

В архиве по умолчанию представлена погода в Нижневартовске за последнюю неделю. Архивные данные за месяц целиком и за предыдущие месяцы, начиная с января 2011 года, Вы можете получить, выбрав интересующий диапазон дат из раскрывающегося списка и нажав кнопку "Ввод!".


*Определитесь, кто Вы:
робот инопланетянин человек

Внимание! Время в таблицах - всемирное. Для получения местного времени необходимо прибавить поправку, которая в Нижневартовске равна 5 ч.

Смотрите также архив погоды в соседних городах и на ближайших метеорологических станциях:

Погода в Александровском (Томская область, Россия) (88 км)
Погода в Ваховске (Ханты-Мансийский АО, Россия) (117 км)
Погода в Радужном (Ханты-Мансийский АО, Россия) (142 км)
Погода в Угуте (Ханты-Мансийский АО, Россия) (148 км)
Погода в Сургуте (Ханты-Мансийский АО, Россия) (177 км)
Погода в Когалыме (Ханты-Мансийский АО, Россия) (182 км)
Погода в Ларьяке (Ханты-Мансийский АО, Россия) (198 км)
Погода в Среднем Васюгане (Томская область, Россия) (210 км)
Погода в Нефтеюганске (Ханты-Мансийский АО, Россия) (215 км)
Погода в Прохоркино (Томская область, Россия) (222 км)

Пояснения к столбцам:

Ветер - указаны скорость ветра в м/с - средняя за 10 мин, порывы в срок и между сроками (в фигурных скобках) и направление, откуда дует ветер: С - северный, СВ - северо-восточный, В - восточный, ЮВ - юго-восточный, Ю - южный, ЮЗ - юго-западный, З - западный, СЗ - северо-западный.
Видимость - горизонтальная дальность видимости в метрах или километрах. При видимости от 1 до 10 км при отсутствии осадков обычно наблюдается дымка, при ухудшении видимости до 1 км и менее - туман. В сухую погоду видимость может ухудшаться дымом, пылью или мглою.
Явления - указаны атмосферные явления, наблюдавшиеся в срок или в последний час перед сроком; фигурными скобками обозначены явления, наблюдавшиеся между сроками (за 1-3 часа до срока); квадратными скобками обозначены град или гололедные отложения с указанием их диаметра в мм.
Облачность - указаны через наклонную черту общая и нижняя облачность в баллах и высота нижней границы облаков в метрах; квадратными скобками обозначены формы облаков: Ci - перистые, Cs - перисто-слоистые, Cc - перисто-кучевые, Ac - высококучевые, As - высокослоистые, Sc - слоисто-кучевые, Ns - слоисто-дождевые, Cu - кучевые, Cb - кучево-дождевые. Подробнее классификацию облаков см. в Атласе облаков (PDF).
T - Температура воздуха - температура, измеренная на высоте 2 м над землей.
Td - Температура точки росы - температура, при понижении до которой содержащийся в воздухе водяной пар достигнет насыщения.
f - Относительная влажность воздуха - влажноcть воздуха, измеренная на высоте 2 м над землей.
Te - Эффективная температура - температура, которую ощущает одетый по сезону человек в тени. Характеристика душности погоды. При расчете учитывается влияние влажности воздуха и скорости ветра на теплоощущения человека.
Tes - Эффективная температура на солнце - температура, которую ощущает человек, с поправкой на солнечный нагрев. Характеристика знойности погоды. Зависит от высоты солнца над горизонтом, облачности и скорости ветра. Ночью, в пасмурную погоду, а также при ветре 12 м/с и более поправка равна нулю.
P - Атмосферное давление - приведенное к уровню моря атмосферное давление.
Po - Атмосферное давление - измеренное на уровне метеостанции атмосферное давление.
Tmin - Минимальная температура - минимум температуры воздуха на высоте 2 м над землей.
Tmax - Максимальная температура - максимум температуры воздуха на высоте 2 м над землей.
R - Количество осадков - Количество выпавших осадков за период времени, мм. При наведении курсора мыши на число - период времени, за который выпало указанное количество осадков.
R24 - Количество осадков - Количество выпавших осадков за 24 часа, мм.
S - Снежный покров - Высота снежного покрова, см. При наведении курсора мыши на число - состояние снежного покрова и степень покрытия местности в баллах.